Printer-friendly version

IAU Minor Planet Center

Minor Planet Center

MPEC 2005-W67 : 2005 WP3

The following Minor Planet Electronic Circular may be linked-to from your own Web pages, but must not otherwise be redistributed electronically.


Read MPEC 2005-W66 Read MPEC 2005-W68


M.P.E.C. 2005-W67                                Issued 2005 Nov. 26, 19:23 UT

     The Minor Planet Electronic Circulars contain information on unusual
         minor planets and routine data on comets.  They are published
   on behalf of Commission 20 of the International Astronomical Union by the
          Minor Planet Center, Smithsonian Astrophysical Observatory,
                          Cambridge, MA 02138, U.S.A.

                  Supported in part by the Brinson Foundation
                  Supported in part by the TABASGO Foundation
             Prepared using the Tamkin Foundation Computer Network

                              MPC@CFA.HARVARD.EDU
          URL http://cfa-www.harvard.edu/iau/mpc.html  ISSN 1523-6714

                                   2005 WP3

Observations:
     K05W03P* C2005 11 25.30320 05 06 44.70 +24 29 26.9          18.3 V EW067691
     K05W03P  C2005 11 25.32045 05 07 03.61 +24 32 27.2          17.8 V EW067691
     K05W03P  C2005 11 25.52742 05 10 53.73 +25 07 03.0          18.0 V EW067291
     K05W03P  C2005 11 25.53273 05 10 59.80 +25 07 54.6          19.5 V EW067291
     K05W03P  C2005 11 26.02644 05 20 43.64 +26 27 22.9          18.6 V EW067198
     K05W03P  C2005 11 26.03217 05 20 49.78 +26 28 15.8          18.6 V EW067198
     K05W03P  C2005 11 26.03303 05 20 50.70 +26 28 23.6          18.6 V EW067198
     K05W03P  C2005 11 26.03313 05 20 50.81 +26 28 24.5          18.7 V EW067198
     K05W03P  C2005 11 26.03361 05 20 51.32 +26 28 28.9          18.7 V EW067198
     K05W03P  C2005 11 26.27996 05 25 37.04 +27 06 41.2          19.2 R EW067854
     K05W03P  C2005 11 26.28165 05 25 38.84 +27 06 55.6          19.2 R EW067854
     K05W03P  C2005 11 26.28616 05 25 43.60 +27 07 36.4          19.1 R EW067854
     K05W03P  C2005 11 26.29250 05 25 46.84 +27 08 13.5          18.9 R EW067734
     K05W03P  C2005 11 26.30007 05 25 54.67 +27 09 23.9                 EW067734
     K05W03P  C2005 11 26.37724 05 27 18.03 +27 21 06.7          18.7 V EW067G96
     K05W03P  C2005 11 26.37830 05 27 19.15 +27 21 16.0          18.5 V EW067G96
     K05W03P  C2005 11 26.37945 05 27 20.34 +27 21 25.8          19.2 V EW067G96
     K05W03P  C2005 11 26.38062 05 27 21.52 +27 21 36.2          18.8 V EW067G96

Observer details:
198 Wildberg.  Observer R. Apitzsch.  0.35-m f/4.2 reflector + CCD.
291 LPL/Spacewatch II.  Observer J. V. Scotti.  1.8-m f/2.7 reflector + CCD.
691 Steward Observatory, Kitt Peak.  Observers A. S. Descour, P. J. Czuma.
    Measurer A. S. Descour.  0.9-m f/3 reflector + CCD.
734 Farpoint Observatory.  Observer G. Hug.  0.7-m reflector + CCD.
854 Sabino Canyon Observatory, Tucson.  Observer J. E. McGaha.  0.36-m f/10.0
    Schmidt-Cassegrain + CCD.
G96 Mt. Lemmon Survey.  Observers E. J. Christensen, A. D. Grauer.  Measurers
    E. C. Beshore, E. J. Christensen, G. J. Garradd, A. D. Grauer, R. E. Hill,
    R. A. Kowalski, S. M. Larson, R. H. McNaught.  1.5-m reflector + CCD.

Orbital elements:
2005 WP3
Epoch 2005 Nov. 26.0 TT = JDT 2453700.5                 MPC
M   1.93778              (2000.0)            P               Q
n   0.28342911     Peri.  353.45958     +0.55405878     -0.82916421
a   2.2953015      Node    62.87022     +0.76751100     +0.47426780
e   0.5545039      Incl.    4.78245     +0.32240615     +0.29589992
P   3.48           H   24.8           G   0.15
From 17 observations 2005 Nov. 25-26.

Ephemeris:
2005 WP3                 a,e,i = 2.30, 0.55, 5                   q = 1.0225
Date    TT    R. A. (2000) Decl.     Delta      r     Elong.  Phase     V
2005 11 26    05 20.22   +26 24.5    0.0411   1.026   162.4    16.9    18.8
2005 11 28    05 55.75   +30 46.7    0.0460   1.029   155.6    23.3    19.3
2005 11 30    06 25.78   +33 46.0    0.0518   1.032   150.6    28.0    19.7
2005 12 02    06 50.45   +35 46.1    0.0583   1.035   147.0    31.2    20.0
2005 12 04    07 10.43   +37 06.2    0.0653   1.040   144.7    33.3    20.4
2005 12 06    07 26.52   +38 00.1    0.0727   1.044   143.2    34.5    20.6
2005 12 08    07 39.47   +38 36.6    0.0803   1.050   142.3    35.0    20.9
2005 12 10    07 49.88   +39 01.5    0.0882   1.056   142.1    35.0    21.1
2005 12 12    07 58.25   +39 18.5    0.0963   1.062   142.2    34.6    21.3
2005 12 14    08 04.95   +39 30.0    0.104    1.069   142.6    34.0    21.5

2005 12 16    08 10.30   +39 37.6    0.113    1.077   143.3    33.1    21.6
2005 12 26    08 23.22   +39 41.3    0.157    1.121   149.0    26.8    22.2

Brian G. Marsden             (C) Copyright 2005 MPC           M.P.E.C. 2005-W67

Read MPEC 2005-W66 Read MPEC 2005-W68


Our Web policy. Index to the CBAT/MPC/ICQ pages.


Valid HTML 4.01!